When you browse on this site, cookies collect data to enhance your experience and personalize the content and advertising you see.
Visit our Privacy Policy to learn more. By continuing to use the site, you agree to this use of cookies and data.
  • en Suisse
  • Liste des pays
  • À 7 jours
  • Température de l'eau
  • Carte satellitaire
  • Carte météo
  • Widgets météo
  • user-avatar
    Se connecter

    Météo par heure à Seredyntsi

    Ce jour, 11 Décembre, Mardi

    Heure Température Précipitation Vent Pression Humidité
    00:00 -3°C° 0 mm 4 m/s 723 mmHg 91%
    01:00 -3°C° 0 mm 4 m/s 724 mmHg 91%
    02:00 -2°C° 0 mm 3 m/s 724 mmHg 93%
    03:00 -2°C° 0 mm 3 m/s 724 mmHg 93%
    04:00 -2°C° 0 mm 3 m/s 724 mmHg 93%
    05:00 -3°C° 0 mm 4 m/s 724 mmHg 93%
    06:00 -2°C° 0 mm 3 m/s 724 mmHg 93%
    07:00 -2°C° 0 mm 3 m/s 725 mmHg 93%
    08:00 -2°C° 0 mm 3 m/s 725 mmHg 92%
    09:00 -1°C° 0 mm 3 m/s 725 mmHg 91%
    10:00 -1°C° 0 mm 3 m/s 726 mmHg 90%
    11:00 0°C° 0 mm 3 m/s 726 mmHg 88%
    12:00 +1°C° 0 mm 2 m/s 726 mmHg 86%
    13:00 +1°C° 0 mm 2 m/s 726 mmHg 85%
    14:00 +1°C° 0 mm 2 m/s 726 mmHg 83%
    15:00 +1°C° 0 mm 1 m/s 726 mmHg 84%
    16:00 +1°C° 0 mm 1 m/s 727 mmHg 85%
    17:00 0°C° 0 mm 1 m/s 727 mmHg 86%
    18:00 0°C° 0 mm 1 m/s 727 mmHg 86%
    19:00 -1°C° 0 mm 1 m/s 727 mmHg 87%
    20:00 -1°C° 0 mm 1 m/s 728 mmHg 87%
    21:00 -1°C° 0 mm 1 m/s 728 mmHg 87%
    22:00 -1°C° 0 mm 1 m/s 728 mmHg 87%
    23:00 -1°C° 0 mm 1 m/s 728 mmHg 87%

    Demain, 12 Décembre, Mercredi

    Heure Température Précipitation Vent Pression Humidité
    00:00 -1°C° 0 mm 1 m/s 728 mmHg 87%
    01:00 -1°C° 0 mm 1 m/s 728 mmHg 87%
    02:00 -2°C° 0 mm 0 m/s 728 mmHg 87%
    03:00 -2°C° 0 mm 0 m/s 728 mmHg 87%
    04:00 -2°C° 0 mm 0 m/s 728 mmHg 86%
    05:00 -2°C° 0 mm 0 m/s 728 mmHg 86%
    06:00 -2°C° 0 mm 1 m/s 728 mmHg 86%
    07:00 -2°C° 0 mm 1 m/s 728 mmHg 86%
    08:00 -2°C° 0 mm 1 m/s 728 mmHg 86%
    09:00 -1°C° 0 mm 1 m/s 729 mmHg 83%
    10:00 0°C° 0 mm 1 m/s 729 mmHg 81%
    11:00 -2°C° 0 mm 2 m/s 729 mmHg 78%
    12:00 -1°C° 0 mm 2 m/s 729 mmHg 77%
    13:00 -1°C° 0 mm 3 m/s 729 mmHg 76%
    14:00 -1°C° 0 mm 3 m/s 729 mmHg 75%
    15:00 -1°C° 0 mm 3 m/s 729 mmHg 77%
    16:00 -3°C° 0 mm 4 m/s 729 mmHg 80%
    17:00 -3°C° 0 mm 4 m/s 729 mmHg 83%
    18:00 -3°C° 0.1 mm 4 m/s 729 mmHg 85%
    19:00 -3°C° 0.1 mm 4 m/s 729 mmHg 87%
    20:00 -4°C° 0.1 mm 5 m/s 729 mmHg 88%
    21:00 -4°C° 0.3 mm 5 m/s 729 mmHg 89%
    22:00 -4°C° 0.3 mm 5 m/s 729 mmHg 90%
    23:00 -4°C° 0.3 mm 5 m/s 729 mmHg 91%

    Après-demain, 13 Décembre, Jeudi

    Heure Température Précipitation Vent Pression Humidité
    00:00 -4°C° 0.4 mm 5 m/s 729 mmHg 92%
    01:00 -4°C° 0.4 mm 5 m/s 729 mmHg 92%
    02:00 -4°C° 0.4 mm 6 m/s 729 mmHg 92%
    03:00 -4°C° 0.5 mm 6 m/s 728 mmHg 92%
    04:00 -4°C° 0.5 mm 6 m/s 728 mmHg 92%
    05:00 -4°C° 0.5 mm 6 m/s 728 mmHg 92%
    06:00 -4°C° 0.4 mm 6 m/s 728 mmHg 93%
    07:00 -4°C° 0.4 mm 5 m/s 728 mmHg 93%
    08:00 -4°C° 0.4 mm 5 m/s 729 mmHg 93%
    09:00 -4°C° 0.4 mm 5 m/s 729 mmHg 93%
    10:00 -4°C° 0.4 mm 5 m/s 729 mmHg 92%
    11:00 -4°C° 0.4 mm 5 m/s 729 mmHg 92%
    12:00 -4°C° 0.3 mm 5 m/s 729 mmHg 92%
    13:00 -4°C° 0.3 mm 5 m/s 729 mmHg 92%
    14:00 -4°C° 0.3 mm 5 m/s 729 mmHg 92%
    15:00 -4°C° 0.3 mm 5 m/s 729 mmHg 92%
    16:00 -5°C° 0.3 mm 5 m/s 729 mmHg 93%
    17:00 -4°C° 0.3 mm 4 m/s 729 mmHg 93%
    18:00 -4°C° 0.3 mm 4 m/s 729 mmHg 93%
    19:00 -4°C° 0.3 mm 4 m/s 730 mmHg 93%
    20:00 -4°C° 0.3 mm 4 m/s 730 mmHg 93%
    21:00 -4°C° 0.2 mm 4 m/s 730 mmHg 94%
    22:00 -4°C° 0.2 mm 4 m/s 730 mmHg 94%
    23:00 -4°C° 0.2 mm 4 m/s 730 mmHg 94%

    14 Décembre, Vendredi

    Heure Température Précipitation Vent Pression Humidité
    00:00 -4°C° 0.2 mm 4 m/s 730 mmHg 94%
    01:00 -4°C° 0.2 mm 4 m/s 731 mmHg 94%
    02:00 -4°C° 0.2 mm 4 m/s 731 mmHg 94%
    03:00 -4°C° 0.1 mm 4 m/s 731 mmHg 94%
    04:00 -4°C° 0.1 mm 4 m/s 731 mmHg 94%
    05:00 -4°C° 0.1 mm 4 m/s 731 mmHg 94%
    06:00 -4°C° 0.1 mm 4 m/s 731 mmHg 95%
    07:00 -4°C° 0.1 mm 4 m/s 732 mmHg 95%
    08:00 -4°C° 0.1 mm 3 m/s 732 mmHg 95%
    09:00 -4°C° 0.1 mm 3 m/s 732 mmHg 95%
    10:00 -2°C° 0.1 mm 3 m/s 733 mmHg 94%
    11:00 -2°C° 0.1 mm 3 m/s 733 mmHg 94%
    12:00 -2°C° 0.1 mm 3 m/s 733 mmHg 94%
    13:00 -2°C° 0.1 mm 3 m/s 733 mmHg 93%
    14:00 -2°C° 0.1 mm 3 m/s 733 mmHg 93%
    15:00 -2°C° 0 mm 2 m/s 733 mmHg 93%
    16:00 -3°C° 0 mm 2 m/s 734 mmHg 94%
    17:00 -4°C° 0 mm 2 m/s 734 mmHg 94%
    18:00 -4°C° 0 mm 2 m/s 734 mmHg 94%
    19:00 -5°C° 0 mm 2 m/s 734 mmHg 94%
    20:00 -3°C° 0 mm 1 m/s 735 mmHg 94%
    21:00 -3°C° 0 mm 1 m/s 735 mmHg 94%
    22:00 -3°C° 0 mm 1 m/s 735 mmHg 94%
    23:00 -3°C° 0 mm 1 m/s 735 mmHg 94%

    15 Décembre, Samedi

    Heure Température Précipitation Vent Pression Humidité
    00:00 -3°C° 0 mm 1 m/s 735 mmHg 95%
    01:00 -3°C° 0 mm 1 m/s 736 mmHg 95%
    02:00 -3°C° 0 mm 1 m/s 736 mmHg 95%
    03:00 -3°C° 0 mm 1 m/s 736 mmHg 95%
    04:00 -3°C° 0 mm 1 m/s 736 mmHg 96%
    05:00 -3°C° 0 mm 1 m/s 736 mmHg 96%
    06:00 -3°C° 0 mm 1 m/s 736 mmHg 96%
    07:00 -2°C° 0 mm 1 m/s 737 mmHg 96%
    08:00 -2°C° 0 mm 1 m/s 737 mmHg 96%
    09:00 -2°C° 0 mm 1 m/s 737 mmHg 96%
    10:00 -1°C° 0 mm 1 m/s 737 mmHg 95%
    11:00 -3°C° 0 mm 2 m/s 737 mmHg 94%
    12:00 -3°C° 0 mm 2 m/s 737 mmHg 93%
    13:00 -3°C° 0 mm 2 m/s 737 mmHg 92%
    14:00 -3°C° 0 mm 2 m/s 737 mmHg 91%
    15:00 -3°C° 0 mm 2 m/s 738 mmHg 92%
    16:00 -3°C° 0 mm 2 m/s 738 mmHg 93%
    17:00 -4°C° 0 mm 2 m/s 738 mmHg 95%
    18:00 -4°C° 0 mm 2 m/s 738 mmHg 95%
    19:00 -4°C° 0 mm 2 m/s 738 mmHg 95%
    20:00 -4°C° 0 mm 2 m/s 738 mmHg 95%
    21:00 -5°C° 0 mm 2 m/s 738 mmHg 95%
    22:00 -5°C° 0 mm 2 m/s 738 mmHg 96%
    23:00 -6°C° 0 mm 2 m/s 738 mmHg 96%

    16 Décembre, Dimanche

    Heure Température Précipitation Vent Pression Humidité
    00:00 -7°C° 0 mm 3 m/s 738 mmHg 95%
    01:00 -7°C° 0 mm 3 m/s 738 mmHg 95%
    02:00 -7°C° 0 mm 3 m/s 738 mmHg 95%
    03:00 -7°C° 0.1 mm 3 m/s 738 mmHg 95%
    04:00 -7°C° 0.1 mm 3 m/s 738 mmHg 95%
    05:00 -8°C° 0.1 mm 4 m/s 738 mmHg 95%
    06:00 -7°C° 0.2 mm 3 m/s 738 mmHg 95%
    07:00 -7°C° 0.2 mm 3 m/s 738 mmHg 95%
    08:00 -7°C° 0.2 mm 3 m/s 738 mmHg 95%
    09:00 -8°C° 0.2 mm 4 m/s 738 mmHg 94%
    10:00 -8°C° 0.2 mm 4 m/s 738 mmHg 94%
    11:00 -7°C° 0.2 mm 4 m/s 738 mmHg 94%
    12:00 -7°C° 0.2 mm 4 m/s 738 mmHg 94%
    13:00 -7°C° 0.2 mm 4 m/s 738 mmHg 94%
    14:00 -7°C° 0.2 mm 4 m/s 737 mmHg 94%
    15:00 -7°C° 0.3 mm 4 m/s 737 mmHg 94%
    16:00 -6°C° 0.3 mm 3 m/s 737 mmHg 94%
    17:00 -6°C° 0.3 mm 3 m/s 737 mmHg 95%
    18:00 -6°C° 0.1 mm 3 m/s 737 mmHg 95%
    19:00 -6°C° 0.1 mm 3 m/s 737 mmHg 95%
    20:00 -6°C° 0.1 mm 3 m/s 737 mmHg 95%
    21:00 -6°C° 0 mm 3 m/s 737 mmHg 95%
    22:00 -6°C° 0 mm 3 m/s 737 mmHg 96%
    23:00 -6°C° 0 mm 3 m/s 737 mmHg 96%
    Voir plus